Airport/Facility Directory

Airport Facilities Directory John Wayne Airport

Metar/TAF

[source: ADDS]
METAR
KSNA 211253Z AUTO 00000KT 10SM CLR 14/08 A3001 RMK AO2 SLP162 T01440083 =
TAF
KSNA 211120Z 2112/2212 VRB06KT P6SM BKN200 =
SR / SS: 14:30 / 00:45 UTC ( 2017-11-21)

Sectional

Sectional Chart - Southern California

Airport Diagram

airport diagram - John Wayne Airport, Orange County

IFR Chart

IFR Chart - Southern California 

Communications

D-ATIS: 126.0 (714-546-2279)
ASOS: Tel. 714-424-0590
JOHN WAYNE TOWER: 119.9(RWY 01R/19L) 126.8(RWY 01L/19R) 128.35 379.9
JOHN WAYNE GROUND: 120.8 EAST 132.25 WEST
SOCAL APPROACH: 121.3 263.1
SOCAL DEPARTURE: 128.1 132.7 279.575 281.4
CLEARANCE DELIVERY: 118.0 121.85
UNICOM: 122.950
CTAF: 126.800

Runways

   Runway 02R/20L  Runway 02L/20R
Elevation:  56.0  41.5
Gradient:   0.3   0.3
Traffic Pattern:  Left  Right
Runway Heading:  016° Magnetic, 028° True  196° Magnetic, 208° True
Markings:  Precision Instrument in good condition.        Precision Instrument in good condition.
Glide Slope Indicator  P4L (3.00° Glide Path Angle)  P4L (3.00° Glide Path Angle)

KSNA Live ATC